Time,TemperatureF,DewpointF,PressureIn,WindDirection,WindDirectionDegrees,WindSpeedMPH,WindSpeedGustMPH,Humidity,HourlyPrecipIn,Conditions,Clouds,dailyrainin,SoftwareType,DateUTC
2013-06-19 00:12:00,54.5,50.0,29.92,WSW,252,1.0,1.0,86,0.00,,,0.00,weatherlink.com 1.10,2013-06-19 07:12:00,
2013-06-19 00:27:00,53.7,50.0,29.92,West,273,0.0,2.0,87,0.00,,,0.00,weatherlink.com 1.10,2013-06-19 07:27:00,
2013-06-19 00:43:00,53.7,51.0,29.92,West,273,0.0,1.0,89,0.00,,,0.00,weatherlink.com 1.10,2013-06-19 07:43:00,
2013-06-19 00:58:00,52.7,49.0,29.92,WSW,249,2.0,3.0,88,0.00,,,0.00,weatherlink.com 1.10,2013-06-19 07:58:00,
2013-06-19 01:13:00,52.8,50.0,29.91,WSW,248,0.0,0.0,90,0.00,,,0.00,weatherlink.com 1.10,2013-06-19 08:13:00,
2013-06-19 01:28:00,52.1,49.0,29.91,West,259,0.0,1.0,90,0.00,,,0.00,weatherlink.com 1.10,2013-06-19 08:28:00,
2013-06-19 01:43:00,52.2,50.0,29.91,WSW,255,1.0,2.0,91,0.00,,,0.00,weatherlink.com 1.10,2013-06-19 08:43:00,
2013-06-19 01:58:00,52.2,50.0,29.91,WSW,249,0.0,0.0,91,0.00,,,0.00,weatherlink.com 1.10,2013-06-19 08:58:00,
2013-06-19 02:13:00,51.5,49.0,29.90,WSW,245,1.0,1.0,92,0.00,,,0.00,weatherlink.com 1.10,2013-06-19 09:13:00,
2013-06-19 02:28:00,51.2,49.0,29.90,WSW,253,1.0,1.0,93,0.00,,,0.00,weatherlink.com 1.10,2013-06-19 09:28:00,
2013-06-19 02:43:00,51.1,49.0,29.90,West,266,1.0,2.0,93,0.00,,,0.00,weatherlink.com 1.10,2013-06-19 09:43:00,
2013-06-19 02:58:00,50.6,49.0,29.90,West,271,1.0,2.0,94,0.00,,,0.00,weatherlink.com 1.10,2013-06-19 09:58:00,
2013-06-19 03:13:00,50.9,49.0,29.90,WSW,256,0.0,1.0,94,0.00,,,0.00,weatherlink.com 1.10,2013-06-19 10:13:00,
2013-06-19 03:28:00,50.8,49.0,29.90,WSW,256,1.0,2.0,93,0.00,,,0.00,weatherlink.com 1.10,2013-06-19 10:28:00,
2013-06-19 03:43:00,50.1,49.0,29.90,West,260,1.0,2.0,95,0.00,,,0.00,weatherlink.com 1.10,2013-06-19 10:43:00,
2013-06-19 03:58:00,49.9,49.0,29.90,WSW,255,1.0,1.0,95,0.00,,,0.00,weatherlink.com 1.10,2013-06-19 10:58:00,
2013-06-19 04:13:00,50.4,49.0,29.91,WSW,248,1.0,1.0,96,0.00,,,0.00,weatherlink.com 1.10,2013-06-19 11:13:00,
2013-06-19 04:28:00,50.8,50.0,29.91,WSW,240,1.0,1.0,95,0.00,,,0.00,weatherlink.com 1.10,2013-06-19 11:28:00,
2013-06-19 04:43:00,50.5,49.0,29.91,West,268,1.0,2.0,95,0.00,,,0.00,weatherlink.com 1.10,2013-06-19 11:43:00,
2013-06-19 04:58:00,50.9,50.0,29.90,West,270,2.0,3.0,95,0.00,,,0.00,weatherlink.com 1.10,2013-06-19 11:58:00,
2013-06-19 05:13:00,50.6,49.0,29.90,West,259,1.0,1.0,95,0.00,,,0.00,weatherlink.com 1.10,2013-06-19 12:13:00,
2013-06-19 05:28:00,50.5,49.0,29.90,West,260,0.0,1.0,96,0.00,,,0.00,weatherlink.com 1.10,2013-06-19 12:28:00,
2013-06-19 05:43:00,50.2,49.0,29.90,West,262,2.0,3.0,95,0.00,,,0.00,weatherlink.com 1.10,2013-06-19 12:43:00,
2013-06-19 05:58:00,50.2,49.0,29.91,WSW,255,0.0,1.0,96,0.00,,,0.00,weatherlink.com 1.10,2013-06-19 12:58:00,
2013-06-19 06:13:00,50.6,50.0,29.91,WSW,255,0.0,1.0,96,0.00,,,0.00,weatherlink.com 1.10,2013-06-19 13:13:00,
2013-06-19 06:28:00,50.9,50.0,29.91,WSW,255,0.0,1.0,95,0.00,,,0.00,weatherlink.com 1.10,2013-06-19 13:28:00,
2013-06-19 06:43:00,51.4,50.0,29.91,West,266,0.0,1.0,95,0.00,,,0.00,weatherlink.com 1.10,2013-06-19 13:43:00,
2013-06-19 06:58:00,52.0,51.0,29.91,West,267,1.0,1.0,95,0.00,,,0.00,weatherlink.com 1.10,2013-06-19 13:58:00,
2013-06-19 07:13:00,52.9,51.0,29.91,West,267,0.0,0.0,94,0.00,,,0.00,weatherlink.com 1.10,2013-06-19 14:13:00,
2013-06-19 07:28:00,53.6,52.0,29.91,West,267,0.0,0.0,93,0.00,,,0.00,weatherlink.com 1.10,2013-06-19 14:28:00,
2013-06-19 07:43:00,54.0,52.0,29.92,West,267,0.0,0.0,92,0.00,,,0.00,weatherlink.com 1.10,2013-06-19 14:43:00,
2013-06-19 07:58:00,54.4,52.0,29.92,West,267,0.0,0.0,91,0.00,,,0.00,weatherlink.com 1.10,2013-06-19 14:58:00,
2013-06-19 08:13:00,54.7,52.0,29.92,ENE,66,1.0,1.0,91,0.00,,,0.00,weatherlink.com 1.10,2013-06-19 15:13:00,
2013-06-19 08:28:00,54.9,52.0,29.92,ENE,57,0.0,2.0,90,0.00,,,0.00,weatherlink.com 1.10,2013-06-19 15:28:00,
2013-06-19 08:43:00,55.5,52.0,29.92,ENE,57,0.0,1.0,89,0.00,,,0.00,weatherlink.com 1.10,2013-06-19 15:43:00,
2013-06-19 08:58:00,56.2,53.0,29.92,ENE,57,0.0,0.0,88,0.00,,,0.00,weatherlink.com 1.10,2013-06-19 15:58:00,
2013-06-19 09:13:00,56.8,53.0,29.92,ENE,57,0.0,1.0,87,0.00,,,0.00,weatherlink.com 1.10,2013-06-19 16:13:00,
2013-06-19 09:28:00,56.9,53.0,29.93,ENE,57,3.0,3.0,87,0.00,,,0.00,weatherlink.com 1.10,2013-06-19 16:28:00,
2013-06-19 09:43:00,58.4,54.0,29.92,NE,41,0.0,2.0,85,0.00,,,0.00,weatherlink.com 1.10,2013-06-19 16:43:00,
2013-06-19 09:59:00,59.5,53.0,29.92,NE,49,3.0,4.0,79,0.00,,,0.00,weatherlink.com 1.10,2013-06-19 16:59:00,
2013-06-19 10:13:00,58.4,52.0,29.91,ENE,60,2.0,3.0,80,0.00,,,0.00,weatherlink.com 1.10,2013-06-19 17:13:00,
2013-06-19 10:28:00,59.3,53.0,29.91,SSW,192,1.0,3.0,80,0.00,,,0.00,weatherlink.com 1.10,2013-06-19 17:28:00,
2013-06-19 10:44:00,60.3,53.0,29.91,NNE,25,2.0,3.0,77,0.00,,,0.00,weatherlink.com 1.10,2013-06-19 17:44:00,
2013-06-19 10:59:00,60.8,53.0,29.91,SSE,158,2.0,5.0,75,0.00,,,0.00,weatherlink.com 1.10,2013-06-19 17:59:00,
2013-06-19 11:14:00,61.1,52.0,29.91,ESE,112,4.0,8.0,73,0.00,,,0.00,weatherlink.com 1.10,2013-06-19 18:14:00,
2013-06-19 11:29:00,60.4,52.0,29.91,SSE,148,6.0,9.0,73,0.00,,,0.00,weatherlink.com 1.10,2013-06-19 18:29:00,
2013-06-19 11:44:00,59.9,52.0,29.92,SSE,154,3.0,7.0,76,0.00,,,0.00,weatherlink.com 1.10,2013-06-19 18:44:00,
2013-06-19 11:59:00,60.2,52.0,29.92,SSE,160,3.0,4.0,75,0.00,,,0.00,weatherlink.com 1.10,2013-06-19 18:59:00,
2013-06-19 12:14:00,60.5,53.0,29.92,ENE,65,0.0,4.0,76,0.00,,,0.00,weatherlink.com 1.10,2013-06-19 19:14:00,
2013-06-19 12:29:00,60.7,53.0,29.92,SSE,149,4.0,6.0,75,0.00,,,0.00,weatherlink.com 1.10,2013-06-19 19:29:00,
2013-06-19 12:44:00,60.7,53.0,29.92,ENE,65,1.0,5.0,75,0.00,,,0.00,weatherlink.com 1.10,2013-06-19 19:44:00,
2013-06-19 12:59:00,60.7,52.0,29.92,NE,34,2.0,4.0,74,0.00,,,0.00,weatherlink.com 1.10,2013-06-19 19:59:00,
2013-06-19 13:14:00,60.9,53.0,29.93,East,89,0.0,5.0,75,0.00,,,0.00,weatherlink.com 1.10,2013-06-19 20:14:00,
2013-06-19 13:29:00,61.2,53.0,29.92,NE,53,4.0,5.0,75,0.00,,,0.00,weatherlink.com 1.10,2013-06-19 20:29:00,
2013-06-19 13:44:00,60.4,53.0,29.93,NE,50,4.0,7.0,77,0.00,,,0.00,weatherlink.com 1.10,2013-06-19 20:44:00,
2013-06-19 13:59:00,60.5,53.0,29.93,NE,56,4.0,5.0,76,0.00,,,0.00,weatherlink.com 1.10,2013-06-19 20:59:00,
2013-06-19 14:14:00,60.5,52.0,29.93,ESE,113,2.0,4.0,74,0.00,,,0.00,weatherlink.com 1.10,2013-06-19 21:14:00,
2013-06-19 14:29:00,61.2,52.0,29.93,NE,48,0.0,1.0,73,0.00,,,0.00,weatherlink.com 1.10,2013-06-19 21:29:00,
2013-06-19 14:44:00,61.9,53.0,29.94,NE,49,0.0,0.0,72,0.00,,,0.00,weatherlink.com 1.10,2013-06-19 21:44:00,
2013-06-19 14:59:00,62.1,53.0,29.94,NE,50,0.0,1.0,71,0.00,,,0.00,weatherlink.com 1.10,2013-06-19 21:59:00,
2013-06-19 15:14:00,61.8,53.0,29.94,SSE,152,1.0,4.0,73,0.00,,,0.00,weatherlink.com 1.10,2013-06-19 22:14:00,
2013-06-19 15:29:00,61.8,53.0,29.94,SSE,149,2.0,3.0,74,0.00,,,0.00,weatherlink.com 1.10,2013-06-19 22:29:00,
2013-06-19 15:44:00,62.0,54.0,29.94,SSE,148,1.0,2.0,75,0.00,,,0.00,weatherlink.com 1.10,2013-06-19 22:44:00,
2013-06-19 15:59:00,62.6,53.0,29.93,SSE,148,1.0,5.0,71,0.00,,,0.00,weatherlink.com 1.10,2013-06-19 22:59:00,
2013-06-19 16:14:00,62.9,53.0,29.93,SSE,163,3.0,4.0,71,0.00,,,0.00,weatherlink.com 1.10,2013-06-19 23:14:00,
2013-06-19 16:29:00,63.3,53.0,29.93,SE,135,0.0,2.0,69,0.00,,,0.00,weatherlink.com 1.10,2013-06-19 23:29:00,
2013-06-19 16:44:00,62.9,53.0,29.94,East,87,6.0,6.0,69,0.00,,,0.00,weatherlink.com 1.10,2013-06-19 23:44:00,
2013-06-19 16:59:00,62.5,53.0,29.94,ESE,105,4.0,6.0,72,0.00,,,0.00,weatherlink.com 1.10,2013-06-19 23:59:00,
2013-06-19 17:14:00,62.6,53.0,29.94,SSE,162,2.0,4.0,71,0.00,,,0.00,weatherlink.com 1.10,2013-06-20 00:14:00,
2013-06-19 17:29:00,62.8,54.0,29.94,SSE,159,2.0,3.0,72,0.00,,,0.00,weatherlink.com 1.10,2013-06-20 00:29:00,
2013-06-19 17:44:00,63.1,53.0,29.94,SSE,158,1.0,3.0,69,0.00,,,0.00,weatherlink.com 1.10,2013-06-20 00:44:00,
2013-06-19 17:59:00,63.0,53.0,29.95,SE,145,2.0,4.0,71,0.00,,,0.00,weatherlink.com 1.10,2013-06-20 00:59:00,
2013-06-19 18:14:00,62.8,52.0,29.95,SSE,155,2.0,5.0,69,0.00,,,0.00,weatherlink.com 1.10,2013-06-20 01:14:00,
2013-06-19 18:29:00,62.7,53.0,29.95,SSE,153,3.0,4.0,70,0.00,,,0.00,weatherlink.com 1.10,2013-06-20 01:29:00,
2013-06-19 18:44:00,62.4,53.0,29.95,SSE,154,3.0,3.0,71,0.00,,,0.00,weatherlink.com 1.10,2013-06-20 01:44:00,
2013-06-19 18:59:00,62.2,53.0,29.95,South,177,3.0,4.0,73,0.00,,,0.00,weatherlink.com 1.10,2013-06-20 01:59:00,
2013-06-19 19:14:00,62.2,53.0,29.95,SSE,164,3.0,4.0,71,0.00,,,0.00,weatherlink.com 1.10,2013-06-20 02:14:00,
2013-06-19 19:29:00,62.1,53.0,29.96,SE,139,0.0,3.0,73,0.00,,,0.00,weatherlink.com 1.10,2013-06-20 02:29:00,
2013-06-19 19:44:00,62.1,53.0,29.95,ESE,122,0.0,0.0,73,0.00,,,0.00,weatherlink.com 1.10,2013-06-20 02:44:00,
2013-06-19 19:59:00,62.2,53.0,29.96,ESE,123,0.0,0.0,73,0.00,,,0.00,weatherlink.com 1.10,2013-06-20 02:59:00,
2013-06-19 20:14:00,61.8,53.0,29.96,ESE,122,0.0,0.0,74,0.00,,,0.00,weatherlink.com 1.10,2013-06-20 03:14:00,
2013-06-19 20:29:00,61.3,55.0,29.96,SSW,192,0.0,0.0,81,0.00,,,0.00,weatherlink.com 1.10,2013-06-20 03:29:00,
2013-06-19 20:44:00,60.6,55.0,29.96,WSW,245,0.0,1.0,81,0.00,,,0.00,weatherlink.com 1.10,2013-06-20 03:44:00,
2013-06-19 20:59:00,60.2,54.0,29.97,WSW,245,0.0,0.0,80,0.00,,,0.00,weatherlink.com 1.10,2013-06-20 03:59:00,
2013-06-19 21:14:00,59.6,55.0,29.97,WSW,245,0.0,1.0,84,0.00,,,0.00,weatherlink.com 1.10,2013-06-20 04:14:00,
2013-06-19 21:29:00,59.4,55.0,29.97,WSW,245,0.0,1.0,85,0.00,,,0.00,weatherlink.com 1.10,2013-06-20 04:29:00,
2013-06-19 21:44:00,59.1,55.0,29.98,WSW,245,1.0,1.0,87,0.00,,,0.00,weatherlink.com 1.10,2013-06-20 04:44:00,
2013-06-19 21:59:00,58.7,55.0,29.97,WSW,245,0.0,0.0,88,0.00,,,0.00,weatherlink.com 1.10,2013-06-20 04:59:00,
2013-06-19 22:14:00,58.3,55.0,29.97,WSW,245,0.0,1.0,89,0.00,,,0.00,weatherlink.com 1.10,2013-06-20 05:14:00,
2013-06-19 22:29:00,57.7,55.0,29.97,WSW,245,0.0,1.0,89,0.00,,,0.00,weatherlink.com 1.10,2013-06-20 05:29:00,
2013-06-19 22:44:00,57.4,55.0,29.96,WSW,245,0.0,1.0,90,0.00,,,0.00,weatherlink.com 1.10,2013-06-20 05:44:00,
2013-06-19 22:59:00,57.5,55.0,29.96,WSW,245,0.0,0.0,91,0.00,,,0.00,weatherlink.com 1.10,2013-06-20 05:59:00,
2013-06-19 23:14:00,57.5,55.0,29.96,WSW,245,0.0,1.0,92,0.00,,,0.00,weatherlink.com 1.10,2013-06-20 06:14:00,
2013-06-19 23:29:00,58.2,54.0,29.97,ENE,69,1.0,2.0,87,0.00,,,0.00,weatherlink.com 1.10,2013-06-20 06:29:00,
2013-06-19 23:44:00,58.4,53.0,29.98,East,86,2.0,3.0,83,0.00,,,0.00,weatherlink.com 1.10,2013-06-20 06:44:00,
2013-06-19 23:59:00,58.6,54.0,29.98,NE,51,3.0,3.0,83,0.00,,,0.00,weatherlink.com 1.10,2013-06-20 06:59:00,